| time (UTC) | temp F | wind direction | speed knots | gust knots | rain 1hr in | rain 24hr in | rain mn in | humidity % | barometer mb |
| 20260903222515 | 83 | 308 | 0.0 | 0.0 | 0.00 | 0.26 | 0.26 | 87 | 1013.7 |
| 20260903222013 | 83 | 308 | 0.0 | 0.0 | 0.00 | 0.26 | 0.26 | 87 | 1013.6 |
| 20260903221512 | 83 | 308 | 0.0 | 0.0 | 0.00 | 0.26 | 0.26 | 88 | 1013.5 |
| 20260903221010 | 82 | 308 | 0.0 | 0.0 | 0.00 | 0.26 | 0.26 | 88 | 1013.4 |
| 20260903220513 | 82 | 308 | 0.0 | 0.0 | 0.00 | 0.26 | 0.26 | 88 | 1013.5 |
| 20260903220012 | 82 | 308 | 0.0 | 0.0 | 0.00 | 0.26 | 0.26 | 88 | 1013.5 |
| 20260903215510 | 82 | 308 | 0.0 | 0.0 | 0.00 | 0.30 | 0.26 | 88 | 1013.5 |
| 20260903215010 | 82 | 308 | 0.0 | 0.0 | 0.00 | 0.30 | 0.26 | 88 | 1013.5 |
| 20260903214512 | 82 | 308 | 0.0 | 0.0 | 0.00 | 0.30 | 0.26 | 88 | 1013.4 |
| 20260903214016 | 82 | 308 | 0.0 | 0.0 | 0.00 | 0.30 | 0.26 | 88 | 1013.3 |
| 20260903213508 | 82 | 308 | 0.0 | 0.0 | 0.00 | 0.30 | 0.26 | 88 | 1013.5 |
| 20260903213006 | 82 | 308 | 0.0 | 0.0 | 0.00 | 0.30 | 0.26 | 89 | 1013.5 |
| 20260903212507 | 82 | 308 | 0.0 | 0.0 | 0.00 | 0.30 | 0.26 | 88 | 1013.3 |
| 20260903212009 | 82 | 308 | 0.0 | 0.0 | 0.00 | 0.30 | 0.26 | 88 | 1013.2 |
| 20260903211504 | 82 | 308 | 0.0 | 0.0 | 0.00 | 0.30 | 0.26 | 88 | 1013.1 |
| 20260903211004 | 81 | 308 | 0.0 | 0.0 | 0.00 | 0.30 | 0.26 | 88 | 1013.2 |
| 20260903210502 | 82 | 225 | 0.0 | 0.0 | 0.00 | 0.30 | 0.26 | 88 | 1013.3 |
| 20260903210002 | 81 | 89 | 0.0 | 0.0 | 0.00 | 0.31 | 0.26 | 88 | 1013.3 |
| 20260903205559 | 81 | 46 | 0.0 | 0.0 | 0.00 | 0.31 | 0.26 | 89 | 1013.5 |
| 20260903205059 | 81 | 347 | 0.0 | 0.0 | 0.00 | 0.31 | 0.26 | 89 | 1013.6 |
| 20260903204558 | 81 | 4 | 0.0 | 0.0 | 0.00 | 0.31 | 0.26 | 88 | 1013.7 |
| 20260903204058 | 81 | 308 | 0.0 | 0.0 | 0.00 | 0.31 | 0.26 | 88 | 1013.8 |
| 20260903203557 | 81 | 125 | 0.0 | 0.0 | 0.00 | 0.31 | 0.26 | 88 | 1013.8 |
| 20260903203106 | 81 | 265 | 0.0 | 0.0 | 0.00 | 0.31 | 0.26 | 89 | 1013.7 |
| 20260903202555 | 82 | 324 | 0.0 | 0.0 | 0.01 | 0.31 | 0.26 | 89 | 1013.7 |
| 20260903202057 | 82 | 297 | 0.0 | 0.0 | 0.04 | 0.31 | 0.26 | 90 | 1013.8 |
| 20260903201554 | 82 | 297 | 0.0 | 0.0 | 0.04 | 0.31 | 0.26 | 90 | 1013.9 |
| 20260903201053 | 81 | 300 | 0.0 | 0.0 | 0.04 | 0.31 | 0.26 | 89 | 1014.0 |
| 20260903200554 | 81 | 334 | 0.0 | 0.0 | 0.04 | 0.31 | 0.26 | 90 | 1014.3 |
| 20260903200052 | 81 | 335 | 0.0 | 0.0 | 0.04 | 0.31 | 0.26 | 90 | 1014.3 |
| 20260903195551 | 81 | 343 | 0.0 | 0.0 | 0.04 | 0.59 | 0.26 | 90 | 1014.4 |
| 20260903195051 | 81 | 337 | 0.0 | 0.0 | 0.04 | 0.59 | 0.26 | 89 | 1014.4 |
| 20260903194554 | 82 | 338 | 0.0 | 0.0 | 0.04 | 0.59 | 0.26 | 89 | 1014.3 |
| 20260903194048 | 82 | 338 | 0.0 | 0.0 | 0.04 | 0.59 | 0.26 | 89 | 1014.6 |
| 20260903193548 | 82 | 146 | 0.0 | 0.0 | 0.04 | 0.59 | 0.26 | 88 | 1014.8 |
| 20260903193049 | 83 | 333 | 0.0 | 0.9 | 0.04 | 0.59 | 0.26 | 87 | 1014.6 |
| 20260903192648 | 84 | 333 | 0.0 | 0.9 | 0.03 | 0.57 | 0.25 | 86 | 1014.7 |
| 20260903192046 | 85 | 302 | 0.0 | 0.9 | 0.00 | 0.55 | 0.22 | 85 | 1014.5 |
| 20260903191545 | 85 | 290 | 0.0 | 0.9 | 0.00 | 0.55 | 0.22 | 85 | 1014.3 |
| 20260903191044 | 85 | 165 | 0.0 | 1.7 | 0.00 | 0.55 | 0.22 | 85 | 1014.3 |
| 20260903190546 | 85 | 139 | 0.0 | 0.9 | 0.00 | 0.55 | 0.22 | 85 | 1014.6 |
| 20260903190043 | 85 | 98 | 0.0 | 0.9 | 0.00 | 0.55 | 0.22 | 84 | 1014.6 |
| 20260903185542 | 86 | 307 | 0.0 | 0.0 | 0.00 | 0.56 | 0.22 | 85 | 1014.6 |
| 20260903185042 | 86 | 314 | 0.0 | 0.0 | 0.00 | 0.56 | 0.22 | 85 | 1014.6 |
| 20260903184541 | 87 | 295 | 0.0 | 0.0 | 0.00 | 0.56 | 0.22 | 85 | 1014.6 |
| 20260903184038 | 86 | 8 | 0.0 | 0.9 | 0.00 | 0.56 | 0.22 | 86 | 1014.6 |
| 20260903183537 | 86 | 301 | 0.0 | 0.9 | 0.00 | 0.56 | 0.22 | 86 | 1014.6 |
| 20260903183036 | 86 | 328 | 0.0 | 0.0 | 0.00 | 0.56 | 0.22 | 86 | 1014.8 |
| 20260903182535 | 86 | 139 | 0.0 | 0.0 | 0.00 | 0.56 | 0.22 | 87 | 1014.9 |
| 20260903182033 | 85 | 166 | 0.0 | 0.9 | 0.00 | 0.56 | 0.22 | 88 | 1014.9 |
| 20260903181533 | 85 | 307 | 0.0 | 1.7 | 0.00 | 0.56 | 0.22 | 87 | 1015.1 |
| 20260903181030 | 85 | 312 | 0.0 | 1.7 | 0.00 | 0.56 | 0.22 | 87 | 1015.2 |
| 20260903180528 | 84 | 245 | 0.0 | 1.7 | 0.00 | 0.56 | 0.22 | 89 | 1015.4 |
| 20260903180032 | 84 | 319 | 0.0 | 1.7 | 0.00 | 0.56 | 0.22 | 88 | 1015.4 |
| 20260903175525 | 83 | 27 | 0.0 | 1.7 | 0.00 | 0.56 | 0.22 | 89 | 1015.4 |
| 20260903175025 | 83 | 37 | 0.0 | 0.9 | 0.00 | 0.56 | 0.22 | 89 | 1015.5 |
| 20260903174523 | 83 | 147 | 0.0 | 2.6 | 0.00 | 0.56 | 0.22 | 90 | 1015.5 |
| 20260903174022 | 83 | 262 | 0.0 | 2.6 | 0.00 | 0.56 | 0.22 | 89 | 1015.5 |
| 20260903173525 | 83 | 276 | 0.0 | 3.5 | 0.00 | 0.56 | 0.22 | 91 | 1015.6 |
| 20260903173019 | 82 | 113 | 0.0 | 3.5 | 0.00 | 0.56 | 0.22 | 93 | 1015.6 |
| 20260903172518 | 81 | 60 | 0.0 | 3.5 | 0.00 | 0.56 | 0.22 | 93 | 1015.7 |
| 20260903172017 | 81 | 227 | 0.0 | 1.7 | 0.00 | 0.56 | 0.22 | 95 | 1015.7 |
| 20260903171526 | 80 | 307 | 0.0 | 1.7 | 0.00 | 0.56 | 0.22 | 95 | 1015.8 |
| 20260903171018 | 80 | 309 | 0.0 | 0.9 | 0.00 | 0.56 | 0.22 | 95 | 1015.8 |
| 20260903170515 | 79 | 309 | 0.0 | 0.0 | 0.02 | 0.56 | 0.22 | 95 | 1016.0 |
| 20260903170031 | 79 | 309 | 0.0 | 0.0 | 0.03 | 0.56 | 0.22 | 95 | 1016.1 |
| 20260903165517 | 78 | 309 | 0.0 | 0.0 | 0.05 | 0.56 | 0.22 | 95 | 1016.3 |
| 20260903165015 | 78 | 309 | 0.0 | 0.0 | 0.08 | 0.56 | 0.22 | 95 | 1016.4 |
| 20260903164517 | 78 | 309 | 0.0 | 0.0 | 0.13 | 0.56 | 0.22 | 95 | 1016.3 |
| 20260903164013 | 77 | 309 | 0.0 | 0.0 | 0.13 | 0.56 | 0.22 | 94 | 1016.3 |
| 20260903163511 | 77 | 309 | 0.0 | 0.0 | 0.13 | 0.56 | 0.22 | 94 | 1016.3 |
| 20260903163020 | 77 | 309 | 0.0 | 0.0 | 0.18 | 0.56 | 0.22 | 94 | 1016.3 |
| 20260903162510 | 77 | 309 | 0.0 | 0.0 | 0.19 | 0.56 | 0.22 | 94 | 1016.3 |
| 20260903162010 | 76 | 309 | 0.0 | 0.0 | 0.19 | 0.56 | 0.22 | 94 | 1016.2 |
| 20260903161510 | 76 | 309 | 0.0 | 1.7 | 0.19 | 0.56 | 0.22 | 94 | 1016.2 |
| 20260903161009 | 76 | 13 | 0.0 | 1.7 | 0.19 | 0.56 | 0.22 | 94 | 1016.4 |
| 20260903160509 | 76 | 165 | 0.0 | 2.6 | 0.17 | 0.54 | 0.20 | 94 | 1016.4 |
| 20260903160008 | 76 | 3 | 0.0 | 4.3 | 0.16 | 0.53 | 0.19 | 93 | 1016.6 |
| 20260903155507 | 77 | 281 | 0.0 | 6.1 | 0.13 | 0.50 | 0.16 | 93 | 1016.7 |
| 20260903155006 | 77 | 328 | 0.9 | 6.1 | 0.10 | 0.47 | 0.13 | 93 | 1016.8 |
| 20260903154505 | 77 | 150 | 0.0 | 7.0 | 0.06 | 0.43 | 0.09 | 93 | 1017.0 |
| 20260903154004 | 78 | 103 | 0.9 | 7.0 | 0.07 | 0.43 | 0.09 | 92 | 1016.9 |
| 20260903153502 | 78 | 122 | 0.9 | 3.5 | 0.05 | 0.41 | 0.08 | 92 | 1016.7 |
| 20260903153001 | 79 | 329 | 0.9 | 3.5 | 0.01 | 0.37 | 0.03 | 93 | 1016.8 |
| 20260903152600 | 80 | 39 | 0.0 | 0.9 | 0.01 | 0.37 | 0.03 | 94 | 1016.6 |
| 20260903152058 | 79 | 39 | 0.0 | 0.0 | 0.01 | 0.37 | 0.03 | 94 | 1016.3 |
| 20260903151557 | 79 | 39 | 0.0 | 0.0 | 0.02 | 0.37 | 0.03 | 93 | 1016.1 |
| 20260903151056 | 79 | 39 | 0.0 | 0.0 | 0.03 | 0.37 | 0.03 | 93 | 1016.2 |
| 20260903150555 | 79 | 39 | 0.0 | 0.0 | 0.03 | 0.37 | 0.03 | 93 | 1016.1 |
| 20260903150109 | 79 | 39 | 0.0 | 0.0 | 0.03 | 0.37 | 0.03 | 93 | 1016.1 |
| 20260903145554 | 79 | 39 | 0.0 | 0.0 | 0.03 | 0.37 | 0.03 | 93 | 1016.0 |
| 20260903145052 | 79 | 39 | 0.0 | 0.0 | 0.03 | 0.37 | 0.03 | 93 | 1015.9 |
| 20260903144556 | 79 | 39 | 0.0 | 0.0 | 0.03 | 0.37 | 0.03 | 93 | 1015.9 |
| 20260903144051 | 79 | 39 | 0.0 | 0.0 | 0.02 | 0.36 | 0.02 | 92 | 1016.0 |
| 20260903143551 | 79 | 39 | 0.0 | 0.9 | 0.02 | 0.36 | 0.02 | 91 | 1015.9 |
| 20260903143049 | 80 | 39 | 0.0 | 0.9 | 0.02 | 0.36 | 0.02 | 91 | 1015.8 |
| 20260903142548 | 80 | 224 | 0.0 | 1.7 | 0.02 | 0.36 | 0.02 | 91 | 1015.8 |
| 20260903142046 | 81 | 101 | 0.0 | 1.7 | 0.02 | 0.36 | 0.02 | 90 | 1015.8 |
| 20260903141548 | 82 | 151 | 0.0 | 1.7 | 0.01 | 0.35 | 0.01 | 90 | 1015.7 |
| 20260903141048 | 82 | 141 | 0.0 | 1.7 | 0.00 | 0.34 | 0.00 | 90 | 1015.8 |
| 20260903140546 | 82 | 287 | 0.0 | 0.9 | 0.00 | 0.34 | 0.00 | 90 | 1015.7 |
| 20260903140044 | 82 | 287 | 0.0 | 0.9 | 0.00 | 0.34 | 0.00 | 90 | 1015.7 |
| 20260903135543 | 82 | 182 | 0.0 | 2.6 | 0.00 | 0.34 | 0.00 | 90 | 1015.9 |
| 20260903135042 | 81 | 178 | 0.0 | 2.6 | 0.00 | 0.34 | 0.00 | 91 | 1015.8 |
| 20260903134550 | 81 | 144 | 0.0 | 0.9 | 0.00 | 0.34 | 0.00 | 93 | 1015.9 |
| 20260903134042 | 81 | 144 | 0.0 | 0.9 | 0.00 | 0.34 | 0.00 | 93 | 1015.9 |
| 20260903133540 | 80 | 276 | 0.0 | 0.9 | 0.00 | 0.34 | 0.00 | 93 | 1015.8 |
| 20260903133038 | 80 | 224 | 0.0 | 0.9 | 0.00 | 0.34 | 0.00 | 94 | 1015.8 |
| 20260903132534 | 80 | 277 | 0.0 | 0.9 | 0.00 | 0.34 | 0.00 | 94 | 1015.8 |
| 20260903132033 | 80 | 254 | 0.0 | 0.9 | 0.00 | 0.34 | 0.00 | 95 | 1015.8 |
| 20260903131532 | 79 | 258 | 0.0 | 0.9 | 0.00 | 0.34 | 0.00 | 95 | 1015.7 |
| 20260903131030 | 79 | 257 | 0.0 | 0.0 | 0.00 | 0.34 | 0.00 | 95 | 1015.7 |
| 20260903130529 | 79 | 258 | 0.0 | 0.9 | 0.00 | 0.34 | 0.00 | 95 | 1015.7 |
| 20260903130027 | 79 | 258 | 0.0 | 0.9 | 0.00 | 0.34 | 0.00 | 95 | 1015.7 |
| 20260903125528 | 79 | 241 | 0.0 | 0.9 | 0.00 | 0.34 | 0.00 | 95 | 1015.7 |
| 20260903125026 | 78 | 49 | 0.0 | 0.9 | 0.00 | 0.34 | 0.00 | 95 | 1015.7 |
| 20260903124525 | 78 | 49 | 0.0 | 0.9 | 0.00 | 0.34 | 0.00 | 95 | 1015.7 |
| 20260903124025 | 78 | 49 | 0.0 | 0.9 | 0.00 | 0.34 | 0.00 | 96 | 1015.7 |
| 20260903123523 | 78 | 352 | 0.0 | 0.9 | 0.00 | 0.34 | 0.00 | 96 | 1015.7 |
| 20260903123032 | 78 | 326 | 0.0 | 0.9 | 0.00 | 0.34 | 0.00 | 96 | 1015.8 |
| 20260903122523 | 78 | 265 | 0.0 | 0.9 | 0.00 | 0.34 | 0.00 | 96 | 1015.8 |
| 20260903122020 | 78 | 264 | 0.0 | 0.0 | 0.00 | 0.34 | 0.00 | 96 | 1015.7 |
| 20260903121526 | 78 | 264 | 0.0 | 0.0 | 0.00 | 0.34 | 0.00 | 96 | 1015.7 |
| 20260903121017 | 78 | 264 | 0.0 | 0.0 | 0.00 | 0.34 | 0.00 | 96 | 1015.5 |
| 20260903120520 | 78 | 264 | 0.0 | 0.9 | 0.00 | 0.34 | 0.00 | 96 | 1015.5 |
| 20260903120015 | 78 | 264 | 0.0 | 0.9 | 0.00 | 0.34 | 0.00 | 96 | 1015.4 |
| 20260903115513 | 77 | 264 | 0.0 | 0.0 | 0.00 | 0.34 | 0.00 | 95 | 1015.3 |
| 20260903115013 | 77 | 264 | 0.0 | 0.0 | 0.00 | 0.34 | 0.00 | 95 | 1015.2 |
| 20260903114512 | 77 | 264 | 0.0 | 0.0 | 0.00 | 0.34 | 0.00 | 95 | 1015.1 |
| 20260903114011 | 77 | 264 | 0.0 | 0.0 | 0.00 | 0.34 | 0.00 | 95 | 1015.1 |
| 20260903113511 | 77 | 264 | 0.0 | 0.0 | 0.00 | 0.34 | 0.00 | 95 | 1015.1 |
| 20260903113010 | 77 | 264 | 0.0 | 0.0 | 0.00 | 0.34 | 0.00 | 95 | 1015.0 |
| 20260903112511 | 77 | 264 | 0.0 | 0.0 | 0.00 | 0.34 | 0.00 | 95 | 1014.9 |
| 20260903112009 | 77 | 264 | 0.0 | 0.0 | 0.00 | 0.34 | 0.00 | 95 | 1014.8 |
| 20260903111511 | 77 | 264 | 0.0 | 0.0 | 0.00 | 0.34 | 0.00 | 95 | 1014.7 |
| 20260903111010 | 77 | 264 | 0.0 | 0.0 | 0.00 | 0.34 | 0.00 | 95 | 1014.7 |
| 20260903110508 | 77 | 264 | 0.0 | 0.0 | 0.00 | 0.34 | 0.00 | 95 | 1014.6 |
| 20260903110007 | 77 | 264 | 0.0 | 0.0 | 0.00 | 0.34 | 0.00 | 95 | 1014.5 |
| 20260903105508 | 77 | 264 | 0.0 | 0.0 | 0.00 | 0.34 | 0.00 | 95 | 1014.4 |
| 20260903105007 | 77 | 264 | 0.0 | 0.0 | 0.00 | 0.34 | 0.00 | 95 | 1014.5 |
| 20260903104507 | 77 | 264 | 0.0 | 0.0 | 0.00 | 0.34 | 0.00 | 95 | 1014.4 |
| 20260903104006 | 77 | 264 | 0.0 | 0.0 | 0.00 | 0.34 | 0.00 | 95 | 1014.4 |
| 20260903103505 | 77 | 264 | 0.0 | 0.0 | 0.00 | 0.34 | 0.00 | 95 | 1014.3 |
| 20260903103004 | 77 | 264 | 0.0 | 0.0 | 0.00 | 0.34 | 0.00 | 95 | 1014.3 |
| 20260903102504 | 77 | 264 | 0.0 | 0.0 | 0.00 | 0.34 | 0.00 | 95 | 1014.4 |
| 20260903102004 | 77 | 264 | 0.0 | 0.0 | 0.00 | 0.34 | 0.00 | 95 | 1014.3 |
| 20260903101502 | 77 | 264 | 0.0 | 0.0 | 0.00 | 0.34 | 0.00 | 95 | 1014.3 |
| 20260903101005 | 77 | 264 | 0.0 | 0.0 | 0.00 | 0.34 | 0.00 | 95 | 1014.2 |
| 20260903100502 | 77 | 264 | 0.0 | 0.0 | 0.00 | 0.34 | 0.00 | 95 | 1014.2 |
| 20260903100001 | 77 | 264 | 0.0 | 0.0 | 0.00 | 0.34 | 0.00 | 95 | 1014.2 |
| 20260903095600 | 77 | 264 | 0.0 | 0.0 | 0.00 | 0.34 | 0.00 | 95 | 1014.1 |
| 20260903095100 | 77 | 264 | 0.0 | 0.0 | 0.00 | 0.34 | 0.00 | 95 | 1014.2 |
| 20260903094612 | 77 | 264 | 0.0 | 0.0 | 0.00 | 0.34 | 0.00 | 95 | 1014.0 |
| 20260903094059 | 77 | 264 | 0.0 | 0.0 | 0.00 | 0.34 | 0.00 | 95 | 1013.9 |
| 20260903093556 | 77 | 264 | 0.0 | 0.0 | 0.00 | 0.34 | 0.00 | 95 | 1013.9 |
| 20260903093057 | 77 | 264 | 0.0 | 0.0 | 0.00 | 0.34 | 0.00 | 95 | 1013.9 |
| 20260903092557 | 77 | 264 | 0.0 | 0.0 | 0.00 | 0.34 | 0.00 | 95 | 1013.9 |
| 20260903092057 | 77 | 264 | 0.0 | 0.0 | 0.00 | 0.34 | 0.00 | 95 | 1013.9 |
| 20260903091612 | 77 | 264 | 0.0 | 0.0 | 0.00 | 0.34 | 0.00 | 95 | 1013.9 |
| 20260903091054 | 77 | 264 | 0.0 | 0.0 | 0.00 | 0.34 | 0.00 | 95 | 1013.9 |
| 20260903090554 | 77 | 264 | 0.0 | 0.0 | 0.00 | 0.34 | 0.00 | 95 | 1013.9 |
| 20260903090057 | 77 | 264 | 0.0 | 0.0 | 0.00 | 0.34 | 0.00 | 95 | 1013.9 |
| 20260903085553 | 77 | 264 | 0.0 | 0.0 | 0.00 | 0.34 | 0.00 | 95 | 1013.9 |
| 20260903085052 | 77 | 264 | 0.0 | 0.0 | 0.00 | 0.34 | 0.00 | 95 | 1013.9 |
| 20260903084554 | 77 | 264 | 0.0 | 0.0 | 0.00 | 0.34 | 0.00 | 95 | 1014.0 |
| 20260903084054 | 77 | 264 | 0.0 | 0.0 | 0.00 | 0.34 | 0.00 | 95 | 1013.9 |
| 20260903083550 | 77 | 264 | 0.0 | 0.0 | 0.00 | 0.34 | 0.00 | 95 | 1014.0 |
| 20260903083049 | 77 | 264 | 0.0 | 0.0 | 0.00 | 0.34 | 0.00 | 95 | 1014.0 |
| 20260903082547 | 77 | 264 | 0.0 | 0.0 | 0.00 | 0.34 | 0.00 | 95 | 1014.1 |
| 20260903082047 | 77 | 264 | 0.0 | 0.0 | 0.00 | 0.34 | 0.00 | 95 | 1014.1 |
| 20260903081546 | 77 | 264 | 0.0 | 0.0 | 0.00 | 0.34 | 0.00 | 95 | 1014.2 |
| 20260903081046 | 77 | 264 | 0.0 | 0.0 | 0.00 | 0.34 | 0.00 | 95 | 1014.2 |
| 20260903080544 | 77 | 264 | 0.0 | 0.0 | 0.00 | 0.34 | 0.00 | 95 | 1014.2 |
| 20260903080048 | 77 | 264 | 0.0 | 0.0 | 0.00 | 0.34 | 0.00 | 95 | 1014.3 |
| 20260903075543 | 77 | 264 | 0.0 | 0.0 | 0.00 | 0.34 | 0.00 | 95 | 1014.2 |
| 20260903075042 | 77 | 264 | 0.0 | 0.0 | 0.00 | 0.34 | 0.00 | 95 | 1014.2 |
| 20260903074546 | 77 | 264 | 0.0 | 0.0 | 0.00 | 0.34 | 0.00 | 95 | 1014.3 |
| 20260903074041 | 77 | 264 | 0.0 | 0.0 | 0.00 | 0.34 | 0.00 | 95 | 1014.2 |
| 20260903073539 | 77 | 264 | 0.0 | 0.0 | 0.00 | 0.34 | 0.00 | 95 | 1014.3 |
| 20260903073038 | 77 | 264 | 0.0 | 0.0 | 0.00 | 0.34 | 0.00 | 95 | 1014.3 |
| 20260903072536 | 77 | 264 | 0.0 | 0.0 | 0.00 | 0.34 | 0.00 | 95 | 1014.3 |
| 20260903072036 | 77 | 264 | 0.0 | 0.0 | 0.00 | 0.34 | 0.00 | 95 | 1014.5 |
| 20260903071535 | 77 | 264 | 0.0 | 0.0 | 0.00 | 0.34 | 0.00 | 95 | 1014.6 |
| 20260903071033 | 77 | 264 | 0.0 | 0.0 | 0.00 | 0.34 | 0.00 | 95 | 1014.6 |
| 20260903070533 | 77 | 264 | 0.0 | 0.0 | 0.00 | 0.34 | 0.00 | 95 | 1014.6 |
| 20260903070033 | 77 | 264 | 0.0 | 0.0 | 0.00 | 0.34 | 0.00 | 95 | 1014.5 |
| 20260903065532 | 77 | 264 | 0.0 | 0.0 | 0.00 | 0.34 | 0.00 | 95 | 1014.5 |
| 20260903065032 | 77 | 264 | 0.0 | 0.0 | 0.00 | 0.34 | 0.00 | 95 | 1014.6 |
| 20260903064531 | 77 | 264 | 0.0 | 0.0 | 0.00 | 0.34 | 0.00 | 95 | 1014.6 |
| 20260903064030 | 77 | 264 | 0.0 | 0.0 | 0.00 | 0.34 | 0.00 | 95 | 1014.6 |
| 20260903063531 | 77 | 264 | 0.0 | 0.0 | 0.00 | 0.34 | 0.00 | 95 | 1014.6 |
| 20260903063030 | 77 | 264 | 0.0 | 0.0 | 0.00 | 0.34 | 0.00 | 95 | 1014.7 |
| 20260903062526 | 77 | 264 | 0.0 | 0.0 | 0.00 | 0.34 | 0.00 | 95 | 1014.8 |
| 20260903062024 | 77 | 264 | 0.0 | 0.0 | 0.00 | 0.34 | 0.00 | 95 | 1014.8 |
| 20260903061534 | 77 | 264 | 0.0 | 0.0 | 0.00 | 0.34 | 0.00 | 95 | 1015.0 |
| 20260903061027 | 77 | 264 | 0.0 | 0.0 | 0.00 | 0.34 | 0.00 | 95 | 1015.0 |
| 20260903060522 | 77 | 264 | 0.0 | 0.0 | 0.00 | 0.34 | 0.00 | 95 | 1015.1 |
| 20260903060034 | 77 | 264 | 0.0 | 0.0 | 0.00 | 0.34 | 0.00 | 95 | 1015.1 |
| 20260903055520 | 77 | 264 | 0.0 | 0.0 | 0.00 | 0.34 | 0.00 | 95 | 1015.1 |
| 20260903055020 | 77 | 264 | 0.0 | 0.0 | 0.00 | 0.34 | 0.00 | 95 | 1015.2 |
| 20260903054521 | 77 | 264 | 0.0 | 0.0 | 0.00 | 0.34 | 0.00 | 95 | 1015.3 |
| 20260903053504 | 77 | 264 | 0.0 | 0.0 | 0.00 | 0.34 | 0.00 | 95 | 1015.4 |
| 20260903053117 | 77 | 264 | 0.0 | 0.0 | 0.00 | 0.34 | 0.00 | 95 | 1015.3 |
| 20260903052503 | 77 | 264 | 0.0 | 0.0 | 0.00 | 0.34 | 0.00 | 95 | 1015.3 |
| 20260903052002 | 77 | 264 | 0.0 | 0.0 | 0.00 | 0.34 | 0.00 | 95 | 1015.5 |
| 20260903051635 | 77 | 264 | 0.0 | 0.0 | 0.00 | 0.34 | 0.00 | 95 | 1015.5 |
| 20260903045553 | 77 | 264 | 0.0 | 0.0 | 0.00 | 0.34 | 0.00 | 94 | 1015.3 |
| 20260903045053 | 77 | 264 | 0.0 | 0.0 | 0.00 | 0.34 | 0.00 | 94 | 1015.5 |
| 20260903044559 | 77 | 264 | 0.0 | 0.0 | 0.00 | 0.34 | 0.00 | 94 | 1015.5 |
| 20260903044052 | 77 | 264 | 0.0 | 0.0 | 0.00 | 0.34 | 0.00 | 94 | 1015.5 |
| 20260903043549 | 77 | 264 | 0.0 | 0.0 | 0.00 | 0.34 | 0.00 | 94 | 1015.4 |
| 20260903043106 | 77 | 264 | 0.0 | 0.0 | 0.00 | 0.34 | 0.00 | 94 | 1015.5 |
| 20260903042547 | 77 | 264 | 0.0 | 0.0 | 0.00 | 0.34 | 0.00 | 94 | 1015.4 |
| 20260903042051 | 77 | 264 | 0.0 | 0.0 | 0.00 | 0.34 | 0.00 | 94 | 1015.4 |
| 20260903041551 | 77 | 264 | 0.0 | 0.0 | 0.00 | 0.34 | 0.00 | 94 | 1015.5 |
| 20260903041047 | 77 | 264 | 0.0 | 0.0 | 0.00 | 0.34 | 0.00 | 94 | 1015.5 |
| 20260903040544 | 77 | 264 | 0.0 | 0.0 | 0.00 | 0.34 | 0.00 | 94 | 1015.4 |
| 20260903040045 | 77 | 264 | 0.0 | 0.0 | 0.00 | 0.34 | 0.00 | 94 | 1015.5 |
| 20260903035540 | 77 | 264 | 0.0 | 0.0 | 0.00 | 0.34 | 0.34 | 94 | 1015.5 |
| 20260903035040 | 77 | 264 | 0.0 | 0.0 | 0.00 | 0.34 | 0.34 | 94 | 1015.5 |
| 20260903034540 | 77 | 264 | 0.0 | 0.0 | 0.00 | 0.34 | 0.34 | 94 | 1015.6 |
| 20260903034039 | 77 | 264 | 0.0 | 0.0 | 0.00 | 0.34 | 0.34 | 94 | 1015.7 |
| 20260903033538 | 77 | 264 | 0.0 | 0.0 | 0.00 | 0.34 | 0.34 | 94 | 1015.7 |
| 20260903033038 | 77 | 264 | 0.0 | 0.0 | 0.00 | 0.34 | 0.34 | 94 | 1015.7 |
| 20260903032537 | 77 | 264 | 0.0 | 0.0 | 0.00 | 0.34 | 0.34 | 94 | 1015.7 |
| 20260903032037 | 77 | 264 | 0.0 | 0.0 | 0.00 | 0.34 | 0.34 | 94 | 1015.8 |
| 20260903031536 | 77 | 264 | 0.0 | 0.0 | 0.00 | 0.34 | 0.34 | 94 | 1015.8 |
| 20260903031035 | 77 | 264 | 0.0 | 0.0 | 0.00 | 0.34 | 0.34 | 94 | 1015.8 |
| 20260903030535 | 77 | 264 | 0.0 | 0.0 | 0.00 | 0.34 | 0.34 | 94 | 1015.8 |
| 20260903030035 | 77 | 264 | 0.0 | 0.0 | 0.00 | 0.34 | 0.34 | 94 | 1015.8 |
| 20260903025535 | 77 | 264 | 0.0 | 0.0 | 0.00 | 0.34 | 0.34 | 94 | 1015.9 |
| 20260903025035 | 77 | 264 | 0.0 | 0.0 | 0.00 | 0.34 | 0.34 | 94 | 1015.9 |
| 20260903024533 | 77 | 264 | 0.0 | 0.0 | 0.00 | 0.34 | 0.34 | 94 | 1016.1 |
| 20260903024032 | 77 | 264 | 0.0 | 0.0 | 0.00 | 0.34 | 0.34 | 94 | 1016.1 |
| 20260903023530 | 77 | 264 | 0.0 | 0.0 | 0.00 | 0.34 | 0.34 | 94 | 1016.1 |
| 20260903023030 | 77 | 264 | 0.0 | 0.0 | 0.00 | 0.34 | 0.34 | 94 | 1015.9 |
| 20260903022532 | 77 | 264 | 0.0 | 0.0 | 0.00 | 0.34 | 0.34 | 93 | 1016.0 |
| 20260903022029 | 77 | 264 | 0.0 | 0.0 | 0.00 | 0.34 | 0.34 | 93 | 1016.1 |
| 20260903021528 | 77 | 264 | 0.0 | 0.0 | 0.00 | 0.34 | 0.34 | 93 | 1016.1 |
| 20260903021031 | 77 | 264 | 0.0 | 0.0 | 0.00 | 0.34 | 0.34 | 93 | 1016.1 |
| 20260903020526 | 77 | 264 | 0.0 | 0.0 | 0.00 | 0.34 | 0.34 | 93 | 1016.0 |
| 20260903020026 | 77 | 264 | 0.0 | 0.0 | 0.00 | 0.34 | 0.34 | 93 | 1016.0 |
| 20260903015527 | 77 | 264 | 0.0 | 0.0 | 0.00 | 0.34 | 0.34 | 93 | 1016.0 |
| 20260903015026 | 77 | 264 | 0.0 | 0.0 | 0.00 | 0.34 | 0.34 | 93 | 1016.1 |
| 20260903014525 | 77 | 264 | 0.0 | 0.0 | 0.00 | 0.34 | 0.34 | 93 | 1016.0 |
| 20260903014024 | 77 | 264 | 0.0 | 0.0 | 0.00 | 0.34 | 0.34 | 93 | 1015.9 |
| 20260903013524 | 77 | 264 | 0.0 | 0.0 | 0.00 | 0.34 | 0.34 | 93 | 1015.9 |
| 20260903013024 | 77 | 264 | 0.0 | 0.0 | 0.00 | 0.34 | 0.34 | 92 | 1015.8 |
| 20260903012526 | 78 | 264 | 0.0 | 0.0 | 0.00 | 0.34 | 0.34 | 92 | 1015.8 |
| 20260903012024 | 78 | 264 | 0.0 | 0.0 | 0.00 | 0.34 | 0.34 | 92 | 1015.8 |
| 20260903011521 | 78 | 264 | 0.0 | 0.0 | 0.00 | 0.34 | 0.34 | 92 | 1016.0 |
| 20260903011022 | 78 | 264 | 0.0 | 0.0 | 0.00 | 0.34 | 0.34 | 92 | 1015.9 |
| 20260903010520 | 78 | 264 | 0.0 | 0.0 | 0.00 | 0.34 | 0.34 | 92 | 1016.0 |
| 20260903010020 | 78 | 264 | 0.0 | 0.0 | 0.00 | 0.34 | 0.34 | 92 | 1016.0 |
| 20260903005519 | 78 | 264 | 0.0 | 0.0 | 0.00 | 0.34 | 0.34 | 92 | 1015.8 |
| 20260903005019 | 78 | 264 | 0.0 | 0.0 | 0.00 | 0.34 | 0.34 | 91 | 1015.6 |
| 20260903004523 | 78 | 264 | 0.0 | 0.0 | 0.00 | 0.34 | 0.34 | 91 | 1015.6 |
| 20260903004017 | 78 | 264 | 0.0 | 0.0 | 0.00 | 0.34 | 0.34 | 91 | 1015.5 |
| 20260903003517 | 78 | 264 | 0.0 | 0.0 | 0.00 | 0.34 | 0.34 | 91 | 1015.5 |
| 20260903003020 | 79 | 264 | 0.0 | 0.0 | 0.00 | 0.34 | 0.34 | 91 | 1015.6 |
| 20260903002517 | 79 | 264 | 0.0 | 0.9 | 0.00 | 0.34 | 0.34 | 91 | 1015.6 |
| 20260903002014 | 79 | 264 | 0.0 | 0.9 | 0.00 | 0.34 | 0.34 | 91 | 1015.5 |
| 20260903001519 | 79 | 264 | 0.0 | 0.9 | 0.00 | 0.34 | 0.34 | 91 | 1015.5 |
| 20260903001014 | 79 | 330 | 0.0 | 2.6 | 0.00 | 0.34 | 0.34 | 91 | 1015.6 |
| 20260903000512 | 79 | 333 | 0.0 | 2.6 | 0.00 | 0.34 | 0.34 | 91 | 1015.6 |
| 20260903000011 | 79 | 324 | 0.0 | 1.7 | 0.00 | 0.34 | 0.34 | 91 | 1015.5 |
| 20260902235511 | 79 | 98 | 0.0 | 0.0 | 0.00 | 0.34 | 0.34 | 91 | 1015.4 |
| 20260902235010 | 79 | 98 | 0.0 | 0.0 | 0.00 | 0.34 | 0.34 | 91 | 1015.5 |
| 20260902234510 | 80 | 107 | 0.0 | 0.9 | 0.00 | 0.34 | 0.34 | 91 | 1015.4 |
| 20260902234012 | 80 | 94 | 0.0 | 0.9 | 0.00 | 0.34 | 0.34 | 91 | 1015.4 |
| 20260902233509 | 80 | 229 | 0.0 | 0.9 | 0.00 | 0.34 | 0.34 | 91 | 1015.3 |
| 20260902233009 | 80 | 229 | 0.0 | 0.9 | 0.00 | 0.34 | 0.34 | 90 | 1015.4 |
| 20260902232509 | 80 | 229 | 0.0 | 0.9 | 0.00 | 0.34 | 0.34 | 90 | 1015.4 |
| 20260902232008 | 80 | 262 | 0.0 | 0.9 | 0.00 | 0.34 | 0.34 | 90 | 1015.5 |
| 20260902231511 | 80 | 274 | 0.0 | 0.9 | 0.00 | 0.34 | 0.34 | 90 | 1015.3 |
| 20260902231006 | 80 | 230 | 0.0 | 0.9 | 0.00 | 0.34 | 0.34 | 91 | 1015.3 |
| 20260902230506 | 80 | 230 | 0.0 | 0.9 | 0.00 | 0.34 | 0.34 | 91 | 1015.2 |
| 20260902230006 | 80 | 230 | 0.0 | 0.9 | 0.00 | 0.34 | 0.34 | 91 | 1015.3 |
| 20260902225505 | 80 | 230 | 0.0 | 0.9 | 0.00 | 0.34 | 0.34 | 91 | 1015.4 |
| 20260902225005 | 80 | 338 | 0.0 | 0.9 | 0.00 | 0.34 | 0.34 | 91 | 1015.5 |
| 20260902224504 | 80 | 311 | 0.0 | 0.0 | 0.00 | 0.34 | 0.34 | 91 | 1015.5 |
| 20260902224003 | 80 | 311 | 0.0 | 1.7 | 0.00 | 0.34 | 0.34 | 91 | 1015.4 |
| 20260902223501 | 80 | 311 | 0.0 | 1.7 | 0.00 | 0.34 | 0.34 | 90 | 1015.5 |
| 20260902223001 | 80 | 116 | 0.0 | 1.7 | 0.00 | 0.34 | 0.34 | 91 | 1015.5 |